Home > Time Zones > World Clock > Weather > U.S.A. > Mesa > Past weeks

Flag Weather past 2 weeks in Mesa, Arizona, U.S.A.

Now
57 °F

Passing clouds.


Feels Like: 56 °F
Forecast: 60 / 89 °F
Wind: 7 mph from East

Location: Williams Gateway Airport

Current Time: Oct 30, 2014 at 7:14:15 AM

Latest Report: Oct 30, 2014 at 6:47 AM


Visibility: 45 mi

Pressure: 30.04 "Hg

Humidity: 51%

Dew point: 39 °F

Location of MesaLocation

Historic Weather in Mesa — Graph

°F

Mesa temperature yesterday

Maximum temperature yesterday: 88 °F (at 2:47 PM)
Minimum temperature yesterday: 55 °F (at 3:15 AM)
Average temperature yesterday: 66 °F

Past Weeks' High & Low Weather Summary

 TemperatureHumidityPressure
High93 °F (Oct 25, 2:47 PM)77% (Oct 20, 5:47 AM)30.10 "Hg (Oct 20, 5:47 AM)
Low55 °F (Oct 29, 3:15 AM)18% (Oct 15, 1:47 PM)28.00 "Hg (Oct 25, 12:47 PM)
Average70 °F51%29.93 "Hg
* Reported Oct 15 5:47 AM — Oct 30 5:47 AM, Mesa, Weather by CustomWeather, © 2014

Note: Actual official high and low records may vary slightly from our data, if they occured in-between our weather recording intervals... More about our weather records

Advertising

Mesa weather history for previous 24 hours

 ConditionsComfort  
Time TempWeatherWind HumidityBarometerVisibility
5:47 AM
Oct 30
57 °FPassing clouds.6 mph51%30.03 "Hg20 mi
4:47 AM61 °FPassing clouds.6 mph45%30.01 "Hg20 mi
4:35 AM61 °FClear.9 mph45%30.01 "Hg10 mi
4:15 AM59 °FClear.8 mph48%30.01 "Hg10 mi
3:55 AM57 °FClear.7 mph51%30.00 "Hg10 mi
3:15 AM59 °FClear.8 mph51%30.00 "Hg10 mi
2:55 AM59 °FClear.5 mph51%30.00 "Hg10 mi
2:35 AM59 °FClear.3 mph55%30.01 "Hg10 mi
2:15 AM59 °FClear.3 mph51%30.01 "Hg10 mi
1:55 AM59 °FClear.6 mph51%30.01 "Hg10 mi
1:35 AM59 °FClear.No wind59%30.02 "Hg10 mi
1:15 AM59 °FClear.No wind59%30.02 "Hg10 mi
12:55 AM59 °FClear.3 mph59%30.02 "Hg10 mi
12:35 AM63 °FClear.No wind45%30.02 "Hg10 mi
12:15 AM63 °FClear.5 mph45%30.02 "Hg10 mi
11:47 PM
Oct 29
64 °FClear.No wind46%30.02 "Hg20 mi
10:47 PM68 °FClear.N/A43%30.02 "Hg20 mi
9:47 PM66 °FClear.N/A46%30.02 "Hg20 mi
8:47 PM70 °FClear.3 mph40%30.01 "Hg20 mi
7:47 PM73 °FClear.No wind36%30.00 "Hg20 mi
6:47 PM79 °FClear.No wind28%29.99 "Hg20 mi
5:47 PM82 °FClear.6 mph25%29.98 "Hg20 mi
4:50 PM84 °FSunny.6 mph23%29.97 "Hg45 mi
3:47 PM88 °FSunny.6 mph18%29.98 "Hg45 mi
2:47 PM88 °FSunny.No wind21%29.99 "Hg45 mi
12:47 PM82 °FSunny.8 mph28%30.04 "Hg45 mi
11:47 AM79 °FSunny.5 mph32%30.07 "Hg45 mi
10:47 AM75 °FSunny.No wind39%30.09 "Hg45 mi
9:47 AM72 °FSunny.No wind41%30.09 "Hg45 mi
8:55 AM68 °FSunny.No wind49%30.09 "Hg45 mi
7:47 AM63 °FSunny.5 mph56%30.08 "Hg45 mi
Weather by CustomWeather, © 2014

See weather overviewHow to use our weather pages